Погода в Герменчике

Россия / Республика Дагестан     43°32′23″N   46°43′35″E
темп.,
°C
ветер,
м/с
пор.,
м/с
влажн.,
%
обл.,
%
осадки,
мм/ч
давл.,
гПа
погр.,
м
28 ноября, вс
вс2800:00+6ююв1192100 0.0 101910
03:00+6ююв229298 0.0 101817
06:00+6вюв2293100 0.0 101822
09:00+8вюв368598 0.0 1017203
12:00+12вюв4562100 0.0 1016512
15:00+12вюв4766100 0.0 1015379
18:00+8всв47915 0.0 1015154
21:00+8в3894100 0.0 1015204
29 ноября, пн
пн2900:00+7вюв4119353 0.0 1014259
03:00+8вюв3595100 0.0 1015122
06:00+7юв229598 0.0 101629
09:00+9ююв24755 0.0 1017163
12:00+15юв5664100 0.0 1016585
15:00+14вюв577296 0.0 1015476
18:00+10вюв611920 0.0 1015268
21:00+10вюв713915 0.0 1013281
30 ноября, вт
вт3000:00+10вюв71491100 0.0 1010281
03:00+10вюв714887 0.0 1006237
06:00+9в4783100 0.0 1004124
09:00+11вюв1267100 0.0 100487
12:00+14з91363100 0.0 1008616
15:00+16зсз476093 0.0 1008530
18:00+12ю22740 0.0 100713
21:00+11вюв48780 0.0 1002119
1 декабря, ср
ср100:00+12вюв816720 0.0 995325
03:00+11вюв47750 0.0 991107
06:00+10з1020831 0.0 999833
09:00+12з6117326 0.0 1003602
12:00+11зсз91341100 0.0 10061226
15:00+8юз5761100 0.7 1009747
18:00+6ююз6674100 0.8 1012285
21:00+6ю5670100 1.1 1014357
2 декабря, чт
чт200:00+6ююв3669100 0.0 1014188
03:00+7вюв3463100 0.1 101490
06:00+7вюв3350100 0.0 101625
09:00+8ююв245299 0.0 1019172
12:00+11св22385 0.0 1020798
15:00+12всв34350 0.0 1021805
18:00+7всв36660 0.0 1022111
21:00+6всв34840 0.0 102372